Location: Be Tobo
(6.6442°N, 10.6239°W)
Time: 01:13:36
(UTC+00:00)

ARGOS - Pass Details

Date: 18 September 2020
Orbit: 821 x 834 km, 98.4° (Epoch: 21 October)

Event Time Altitude Azimuth Distance (km) Brightness Sun altitude
Exits shadow 20:53:39 36° 320° (NW) 1,284 4.4 -33.9°
Drops below altitude 10° 20:56:50 10° 337° (NNW) 2,409 5.8 -34.6°
Sets 20:59:13 0° 341° (NNW) 3,341 6.6 -35.2°
